This is the latest recevied weather packets stored in our database for station/object N1MCJ. If no packets are shown the sender has not sent any weather packets the latest 10 day(s).
| Time | Temp. | Humidity | Pressure | Rain* | Wind** | Luminosity | Snow |
|---|---|---|---|---|---|---|---|
| 1778098982 | 13.89° C | 99% | 998.7 hPa | 0 mm | - | 15 W/m² | - |
| 1778098079 | 13.89° C | 99% | 998.9 hPa | 0 mm | - | 16 W/m² | - |
| 1778097174 | 14.44° C | 98% | 998.8 hPa | 0 mm | - | 16 W/m² | - |
| 1778096272 | 14.44° C | 98% | 999.2 hPa | 0 mm | - | 23 W/m² | - |
| 1778095367 | 14.44° C | 98% | 999.1 hPa | 0 mm | - | 31 W/m² | - |
| 1778094464 | 14.44° C | 98% | 999.3 hPa | 0 mm | - | 52 W/m² | - |
| 1778093559 | 14.44° C | 98% | 999.5 hPa | 0 mm | - | 80 W/m² | - |
| 1778092656 | 14.44° C | 98% | 999.7 hPa | 0 mm | - | 85 W/m² | - |
| 1778091756 | 13.89° C | 98% | 999.9 hPa | 1.78 mm | - | 55 W/m² | - |
| 1778090853 | 13.89° C | 97% | 1000 hPa | 1.78 mm | - | 35 W/m² | - |
| 1778089953 | 13.89° C | 97% | 1000 hPa | 0 mm | - | 21 W/m² | - |
| 1778089051 | 14.44° C | 95% | 999.6 hPa | 0 mm | - | 40 W/m² | - |
| 1778088147 | 15° C | 93% | 1000.5 hPa | 0 mm | - | 38 W/m² | - |
| 1778087245 | 15° C | 91% | 1000.8 hPa | 0 mm | - | 37 W/m² | - |
| 1778086342 | 15.56° C | 88% | 1001.3 hPa | 0 mm | - | 35 W/m² | - |
| 1778085439 | 15.56° C | 87% | 1001.3 hPa | 0 mm | - | 41 W/m² | - |
| 1778084534 | 16.11° C | 85% | 1001.2 hPa | 0 mm | - | 46 W/m² | - |
| 1778083632 | 16.11° C | 83% | 1001.4 hPa | 0 mm | - | 72 W/m² | - |
| 1778082730 | 16.67° C | 83% | 1001.5 hPa | 0 mm | - | 65 W/m² | - |
| 1778081591 | 16.67° C | 83% | 1001.5 hPa | 0 mm | - | 75 W/m² | - |
| 1778080690 | 16.11° C | 84% | 1001.7 hPa | 0 mm | - | 50 W/m² | - |
| 1778079786 | 16.11° C | 83% | 1001.3 hPa | 0 mm | - | 56 W/m² | - |
| 1778078883 | 16.11° C | 83% | 1001.5 hPa | 0 mm | - | 60 W/m² | - |
| 1778077980 | 16.67° C | 82% | 1001.5 hPa | 0 mm | - | 76 W/m² | - |
| 1778077080 | 16.67° C | 82% | 1001.3 hPa | 0 mm | - | 77 W/m² | - |
* Rain latest hour (hover to see other rain measurements)
** Current wind speed in m/s (hover to see current wind gust speed)